Lake Charles, LA

9:19 AM CST on February 27, 2017 (GMT -0600)
Lake Charles Regional

Weather History for KLCH - February, 2012

Change the Weather History Date:

Friday, February 24, 2012

  Actual Average Record
Temperature  
Mean Temperature 65 °F 57 °F  
Max Temperature 73 °F 67 °F 84 °F (1906)
Min Temperature 56 °F 47 °F 21 °F (1914)
Degree Days  
Heating Degree Days 0 9  
Month to date heating degree days 151 259  
Since 1 July heating degree days 895 1250  
Cooling Degree Days 0 1  
Month to date cooling degree days 30 2  
Year to date cooling degree days 71 12  
Growing Degree Days 14 (Base 50)    
Moisture  
Dew Point 40 °F    
Average Humidity 55    
Maximum Humidity 90    
Minimum Humidity 20    
Precipitation  
Precipitation T in 0.11 in 2.20 in (1917)
Month to date precipitation 8.01 3.01  
Year to date precipitation 16.79 8.24  
Snow  
Snow 0.00 in 0.00 in 0.00 in ()
Month to date snowfall 0.0 0.1  
Since 1 July snowfall 0.0 0.1  
Snow Depth 0.00 in    
Sea Level Pressure  
Sea Level Pressure 30.03 in    
Wind  
Wind Speed 13 mph (NNW)    
Max Wind Speed 29 mph    
Max Gust Speed 40 mph    
Visibility 9 miles    
Events Rain    
T = Trace of Precipitation, MM = Missing Value Source: NWS Daily Summary

Daily Weather History Graph

Daily Weather History Graph

Search for Another Location

Airport or City:

Trip Planner

Search our weather history database for the weather conditions in past years. The results will help you decide how hot, cold, wet, or windy it might be!

Date:

Astronomy

Feb. 24, 2012 Rise Set
Actual Time 6:44 AM CST 6:08 PM CST
Civil Twilight 6:20 AM CST 6:32 PM CST
Nautical Twilight 5:52 AM CST 7:00 PM CST
Astronomical Twilight 5:24 AM CST 7:27 PM CST
Moon 7:56 AM CST (2/24) 8:53 PM CST (2/24)
Length of Visible Light 12h 11m
Length of Day
11h 23m
Waxing Crescent, 8% of the Moon is Illuminated
Feb 24
Waxing Crescent
Feb 29
First Quarter
Mar 8
Full
Mar 14
Last Quarter
Mar 22
New

Hourly Weather History & Observations

Time (CST) Temp. Dew Point Humidity Pressure Visibility Wind Dir Wind Speed Gust Speed Precip Events Conditions
12:53 AM 73.0 °F 69.1 °F 87% 29.71 in 4.0 mi SW 11.5 mph - N/A   Overcast
1:53 AM 73.0 °F 69.1 °F 87% 29.72 in 4.0 mi SW 9.2 mph - N/A   Overcast
2:53 AM 73.0 °F 69.1 °F 87% 29.75 in 4.0 mi West 8.1 mph - 0.00 in Rain Light Rain
3:31 AM 71.6 °F 69.8 °F 94% 29.74 in 3.0 mi WSW 6.9 mph - 0.00 in   Overcast
3:53 AM 72.0 °F 69.1 °F 91% 29.75 in 3.0 mi West 4.6 mph - 0.00 in   Overcast
4:53 AM 72.0 °F 68.0 °F 87% 29.79 in 4.0 mi West 4.6 mph - N/A   Overcast
5:21 AM 68.0 °F 50.0 °F 52% 29.80 in 10.0 mi North 16.1 mph 31.1 mph N/A   Overcast
5:41 AM 68.0 °F 48.2 °F 49% 29.82 in 10.0 mi North 18.4 mph 25.3 mph N/A   Overcast
5:53 AM 68.0 °F 46.9 °F 47% 29.86 in 10.0 mi North 21.9 mph 31.1 mph N/A   Overcast
6:53 AM 64.9 °F 39.9 °F 40% 29.92 in 10.0 mi North 17.3 mph 29.9 mph N/A   Mostly Cloudy
7:53 AM 64.0 °F 39.0 °F 40% 29.98 in 10.0 mi North 13.8 mph 24.2 mph N/A   Overcast
8:53 AM 63.0 °F 35.1 °F 35% 30.01 in 10.0 mi North 19.6 mph 32.2 mph N/A   Overcast
9:53 AM 63.0 °F 33.1 °F 33% 30.06 in 10.0 mi North 21.9 mph 28.8 mph N/A   Overcast
10:53 AM 62.1 °F 30.9 °F 31% 30.10 in 10.0 mi North 16.1 mph 27.6 mph N/A   Overcast
11:53 AM 63.0 °F 30.0 °F 29% 30.11 in 10.0 mi North 18.4 mph 27.6 mph N/A   Clear
12:53 PM 64.0 °F 28.9 °F 27% 30.10 in 10.0 mi North 18.4 mph 31.1 mph N/A   Clear
1:53 PM 64.9 °F 27.0 °F 24% 30.11 in 10.0 mi North 19.6 mph 27.6 mph N/A   Clear
2:53 PM 64.9 °F 24.1 °F 21% 30.11 in 10.0 mi NNE 18.4 mph 25.3 mph N/A   Clear
3:53 PM 64.0 °F 23.0 °F 21% 30.15 in 10.0 mi North 16.1 mph - N/A   Clear
4:53 PM 62.1 °F 21.0 °F 21% 30.17 in 10.0 mi North 17.3 mph 25.3 mph N/A   Clear
5:53 PM 60.1 °F 25.0 °F 26% 30.19 in 10.0 mi NNE 8.1 mph - N/A   Clear
6:53 PM 55.9 °F 33.1 °F 42% 30.24 in 10.0 mi NNW 4.6 mph - N/A   Clear
7:53 PM 57.9 °F 26.1 °F 30% 30.25 in 10.0 mi North 9.2 mph - N/A   Clear
8:53 PM 57.9 °F 26.1 °F 30% 30.30 in 10.0 mi North 5.8 mph - N/A   Clear
9:53 PM 55.9 °F 27.0 °F 33% 30.31 in 10.0 mi North 6.9 mph - N/A   Clear
10:53 PM 57.9 °F 24.1 °F 27% 30.35 in 10.0 mi North 9.2 mph - N/A   Clear
11:53 PM 55.9 °F 23.0 °F 28% 30.34 in 10.0 mi NNE 10.4 mph 19.6 mph N/A   Clear